Terug naar catalogus

SL-14 R/B

ActiefPO
NORAD 21734·ROCKET BODY·🇷🇺 Russia

Gelanceerd Sep 28, 1991 vanaf Plesetsk Cosmodrome

Loading…

Volgende Passages (komende 24 uur)

TLE

VersSource: Space-Track

Epoch: Sep 14, 2026, 15:01 UTC

1 21734U 91068G   26257.62575285  .00000000  00000-0 -66387-4 0  9998
2 21734  82.5829  33.4471 0108384 179.9719 190.5739 12.54257396601018

Volg SL-14 R/B in realtime met AllMySat

Download on the App Store